This demonstration page uses our WeatherBlox Daily Observations layout. Learn more.

Left ArrowRight Arrow

Hourly Observations for July 19, 2016

Temp ( °F °C ) Dew Point ( °F °C ) Humidity (%) Winds ( mph kmh ) Pressure ( in mb ) Visibility ( mi km ) Precip ( " mm )
12:58 am 00:58 Mostly Clear 74 23.4 70 21.2 88 88 ESE 9 15 30.14 1021 10 16 0.00 0.00
1:58 am 01:58 Mostly Clear 73 22.9 70 21.2 90 90 ESE 10 17 30.14 1021 10 16 0.00 0.00
2:58 am 02:58 Partly Cloudy 73 22.6 71 21.4 93 93 E 9 15 30.13 1020 10 16 0.00 0.00
3:58 am 03:58 Clear 73 22.7 71 21.6 94 94 ESE 8 13 30.11 1020 10 16 0.00 0.00
4:58 am 04:58 Mostly Clear 73 22.8 71 21.8 94 94 ESE 8 13 30.11 1020 10 16 0.00 0.00
5:58 am 05:58 Partly Cloudy 73 22.6 72 22.1 97 97 ESE 7 11 30.11 1020 10 16 0.00 0.00
6:58 am 06:58 Sunny 74 23.2 73 22.5 96 96 SE 7 11 30.09 1019 10 16 0.00 0.00
7:58 am 07:58 Sunny 77 25.2 73 22.8 87 87 SSE 8 13 30.09 1019 10 16 0.00 0.00
8:58 am 08:58 Mostly Sunny 79 26.1 74 23.3 85 85 S 6 9 30.10 1019 10 16 0.00 0.00
9:58 am 09:58 Sunny 81 27.1 75 23.7 82 82 SE 12 19 30.09 1019 10 16 0.00 0.00
10:58 am 10:58 Mostly Sunny 82 28 74 23.4 76 76 SSE 12 19 30.06 1018 10 16 0.00 0.00
11:58 am 11:58 Mostly Sunny 83 28.5 75 23.9 76 76 E 5 7 30.11 1020 10 16 0.00 0.00
12:21 pm 12:21 Partly Cloudy with Nearby Thunderstorms 82 28 75 24 79 79 NNE 7 11 30.06 1018 10 16 0.00 0.00
12:38 pm 12:38 Partly Cloudy with Light Rain 81 27 75 24 84 84 NNE 6 9 30.09 1019 10 16 0.00 0.00
12:54 pm 12:54 Cloudy with Thunderstorms 81 27 75 24 84 84 NNE 3 6 30.09 1019 10 16 0.00 0.00
12:58 pm 12:58 Cloudy with Thunderstorms 80 26.6 76 24.3 87 87 NNE 3 6 30.14 1021 6 10 0.00 0.03
1:37 pm 13:37 Partly Cloudy with Light Rain and Scattered Storms 79 26 77 25 94 94 ENE 9 15 30.06 1018 9 14 0.00 0.00
1:58 pm 13:58 Cloudy with Light Rain 78 25.8 77 24.9 95 95 E 9 15 30.10 1019 6 10 0.12 3.05
2:38 pm 14:38 Cloudy 81 27 77 25 89 89 E 7 11 30.06 1018 10 16 0.00 0.00
2:58 pm 14:58 Cloudy 81 27.1 77 25.2 89 89 E 7 11 30.10 1019 10 16 0.01 0.25
3:58 pm 15:58 Mostly Cloudy 81 27.4 77 25 87 87 ESE 13 20 30.09 1019 10 16 0.00 0.00
4:58 pm 16:58 Mostly Cloudy 79 26.3 75 23.9 87 87 E 9 15 30.08 1019 10 16 0.00 0.00
5:58 pm 17:58 Mostly Sunny 80 26.5 75 23.9 86 86 ESE 10 17 30.07 1018 10 16 0.00 0.00
6:58 pm 18:58 Sunny 81 27 75 23.9 83 83 ESE 12 19 30.05 1018 10 16 0.00 0.00
7:58 pm 19:58 Sunny 78 25.6 73 23 86 86 ESE 12 19 30.04 1017 10 16 0.00 0.00
8:58 pm 20:58 Clear 76 24.5 73 22.7 90 90 ESE 10 17 30.04 1017 10 16 0.00 0.00
9:58 pm 21:58 Clear 76 24.3 73 22.8 91 91 ESE 14 22 30.04 1017 10 16 0.00 0.00
10:58 pm 22:58 Clear 76 24.4 73 22.7 90 90 SE 12 19 30.04 1017 10 16 0.00 0.00
11:58 pm 23:58 Clear 75 24 73 22.7 92 92 SE 8 13 30.04 1017 10 16 0.00 0.00

Powered by AerisWeather